User: anonymous   Login
Location: Paderno d�Adda
(45.6667°N, 9.4333°E)
Time: 15:15:41
(UTC+00:00)
Language:

Cosmos 494 Rocket - Orbit

View from above orbital plane
View from above orbital plane
View from above satellite
View from above satellite

Ground track
Ground track

The orbit data is extracted from the following two-line orbital elements,

1 06061U 72043B   20339.47739786  .00000021  00000-0  14925-4 0  9995
2 06061  74.0571   1.2264 0019833 177.8256 182.2989 14.40601685540401
Epoch (UTC): 04 December 2020 11:27:27
Eccentricity: 0.0019833
inclination: 74.0571°
perigee height: 742 km
apogee height: 770 km
right ascension of ascending node: 1.2264°
argument of perigee: 177.8256°
revolutions per day: 14.40601685
mean anomaly at epoch: 182.2989°
orbit number at epoch: 54040

The dashed part of the orbit path shows where the satellite is in the earth's shadow,  

DLR